Albert J Ellis Airport
KOAJ : now visible

Airfield :











YOU CAN JOIN US ON...

 
LOGIN :

Register | Disclaimer

   EN    FR    IT 

 









Legend :    VFR   Marginal VFR   IFR   Intensive IFR   Very Intensive IFR
Visi :
Ceiling :
>= 8 km
>= 3000ft
5 to 8 km
1000 to 3000 ft
1500m to 5 km
500 to 1000 ft
800 to 1500m
200 to 500 ft
< 800m
< 200 ft
Symbols :   Thunderstorms  Fog  Heavy snow  Heavy precipitations  Wind > 20 kt






- Airport Elevation : 94 ft


KOAJ - Albert J Ellis

CURRENT METAR :
  • 171856Z 00000KT 10SM BKN075 26/11 A3024 RMK AO2 SLP243 T02560111

EXPIRED METARs :
  • 171756Z 00000KT 10SM BKN060 OVC075 26/11 A3026 RMK AO2 SLP248 T02560106 10256 20150 58013
  • 171656Z 03004KT 10SM FEW085 24/11 A3027 RMK AO2 SLP253 T02440111

TAF KOAJ
Valid from the 17 at 18:00 until the 18 at 18:00 UTC


171721Z 1718/1818 VRB04KT P6SM BKN080
FM180000 08003KT P6SM SCT060 AMD LTD TO CLD VIS AND WIND
KZDC FIR / North America



MET'MAP, your aeronautical weather chart ! - Copyright ORBIFLY December 2007 - Disclaimer

ORBIFLY MET'MAP TEAM :

Programming & Development : Alexandra Zaïnal
Concept & original design : Baudouin d'Aumeries
Assistance for programming : Marc-Olivier Méhu
Technical & hardware support : Manuel Goepfert

Contact : metmap@orbifly.com




SOURCES & CREDITS :

   NOAA       Earth
Advisory